Regional Weather Roundup
Issued by NWS

Home | Current Version | Previous Version | Graphics & Text | Print | Product List | Glossary On
Versions: 1 2 3 4 5 6 7 8 9 10 11 12 13 14 15 16 17 18 19 20 21 22 23 24 25 26 27
000
ASUS45 KCYS 230310
RWRWY

WYOMING REGIONAL WEATHER ROUNDUP
NATIONAL WEATHER SERVICE CHEYENNE WY
900 PM MDT THU JUN 22 2017

NOTE:  "FAIR" INDICATES FEW OR NO CLOUDS BELOW 12,000 FEET
WITH NO SIGNIFICANT WEATHER AND/OR OBSTRUCTIONS TO VISIBILITY.

WYZ001-230400-
YELLOWSTONE NATIONAL PARK

CITY           SKY/WX    TMP DP  RH WIND       PRES   REMARKS
LK YELLOWSTONE   N/A     50  26  39 VRB5      30.27R
W YELLOWSTONE  NOT AVBL

$$
WYZ002>013-054>058-071-098>099-230400-
NORTHERN WYOMING

CITY           SKY/WX    TMP DP  RH WIND       PRES   REMARKS
JACKSON        FAIR      61  28  29 W6        30.16S
CODY           FAIR      59  26  28 N17G29    30.21R
GREYBULL       FAIR      67  28  23 N23       30.09R
WORLAND        FAIR      67  28  23 N16G29    30.07R
SHERIDAN       FAIR      61  31  32 N17G23    30.15R
BUFFALO        MOCLDY    59  33  37 N12G23    30.16R
GILLETTE       CLOUDY    63  30  28 N17G26    30.10R
NEWCASTLE      FAIR      63  32  31 N18G29    30.07R

$$
WYZ014>020-022>026-101>103-230400-
CENTRAL WYOMING

CITY           SKY/WX    TMP DP  RH WIND       PRES   REMARKS
BIG PINEY      FAIR      61  26  26 N14       30.19R
PINEDALE       FAIR      57  30  35 NW12      30.20R
DUBOIS         FAIR      55  19  24 NW10      30.18R
LANDER         FAIR      63  28  26 N7        30.14R
RIVERTON       FAIR      64  23  21 N21G30    30.10R
CASPER         MOCLDY    63  36  36 N18G28    30.10R
DOUGLAS        CLOUDY    68  35  29 NE14      30.07R

$$
WYZ021-027>030-104>119-230400-
SOUTHERN WYOMING

CITY           SKY/WX    TMP DP  RH WIND       PRES   REMARKS
EVANSTON       FAIR      64  39  39 W6        30.21R
KEMMERER         N/A     61  34  36 NW9       30.21R
FORT BRIDGER   FAIR      67  35  30 NW9       30.21R
ROCK SPRINGS   FAIR      67  26  21 N8G21     30.13R
DIXON          FAIR      75  20  12 NW10      30.09R
RAWLINS        FAIR      68  37  32 NE20G25   30.08R
SARATOGA       FAIR      68  34  28 W10       30.07R
LARAMIE        FAIR      62  37  39 E13       30.10R
CHEYENNE       FAIR      66  47  50 NE9       30.07R
TORRINGTON     CLOUDY    72  44  36 NE13      29.99R
PINE BLUFFS    FAIR      68  50  52 E9        30.01S

$$




USA.gov is the U.S. government's official web portal to all federal, state and local government web resources and services.